Effective Sunday, March 17, 2024, the National Weather Service National Data Buoy Center will discontinue its Dial-A-Buoy Interactive Voice Response system. For more information, see Service Change Notice 24-06 (PDF).

Station KGCA2 - 9459881 - King Cove, AK Image indicating link to RSS feed of recent meteorological observations for station KGCA2


Conditions at KGCA2 as of
(12:54 pm AKST)
2154 GMT on 02/21/2024:
     

Click on the graph icon in the table below to see a time series plot of the last five days of that observation.

5-day plot - Wind Direction Wind Direction (WDIR): S ( 180 deg true )
5-day plot - Wind Speed Wind Speed (WSPD): 14.0 kts
5-day plot - Wind Gust Wind Gust (GST): 20.0 kts
5-day plot - Atmospheric Pressure Atmospheric Pressure (PRES):29.28 in
5-day plot - Air Temperature Air Temperature (ATMP): 35.4 °F
5-day plot - Water Temperature Water Temperature (WTMP): 36.9 °F
5-day plot - Wind Chill Wind Chill (CHILL): 25.5 °F
5-day plot - Wind Speed at 10 Meters Wind Speed at 10 meters (WSPD10M): 13.6 kts
5-day plot - Wind Speed at 20 Meters Wind Speed at 20 meters (WSPD20M): 15.5 kts
5-day plot -  Wind Speed, Wind Gust and Atmospheric Pressure Combined plot of Wind Speed, Gust, and Air Pressure
NOS Water Level Observation Network Water Level
Previous observations
TIME
(AKST)
5-day plot - Wind Direction
WDIR
 
5-day plot - Wind Speed
WSPD
kts
5-day plot - Wind Gust
GST
kts
5-day plot - Wave Height
WVHT
ft
5-day plot - Dominant Wave Period
DPD
sec
5-day plot - Average Wave Period
APD
sec
5-day plot - Mean Wave Direction
MWD
 
5-day plot - Atmospheric Pressure
PRES
in
5-day plot - Pressure Tendency
PTDY
in
5-day plot - Air Temperature
ATMP
°F
5-day plot - Water Temperature
WTMP
°F
5-day plot - Dew Point
DEWP
°F
5-day plot - Salinity
SAL
psu
5-day plot - Visibility
VIS
nmi
5-day plot - Tide (above MLLW)
TIDE
ft
2024-02-21 12:48 pm S 15.9 33.0----29.27- 35.4 36.9----
2024-02-21 12:42 pm S 18.1 28.0----29.26- 35.4 36.9----
2024-02-21 12:36 pmSSE 13.0 26.0----29.27- 35.1 36.9----
2024-02-21 12:30 pmSSE 15.9 26.0----29.26- 35.4 36.9----
2024-02-21 12:24 pmSSE 13.0 25.1----29.26- 35.6 36.9----
2024-02-21 12:18 pm SE 11.1 19.0----29.25- 35.8 36.9----
2024-02-21 12:12 pm SE 9.9 17.1----29.24- 36.0 36.9----
2024-02-21 12:06 pm SE 9.9 22.9----29.24- 36.1 36.9----
2024-02-21 12:00 pm S 13.0 24.1----29.24+0.06 36.1 36.9----
2024-02-21 11:54 am S 12.0 22.0----29.25- 36.5 36.9----
2024-02-21 11:48 am SW 15.0 31.1----29.24- 36.9 36.9----
2024-02-21 11:42 am S 18.1 28.0----29.24- 37.8 36.9----
2024-02-21 11:36 amSSW 17.1 28.0----29.23- 37.8 36.9----
2024-02-21 11:30 am S 17.1 27.0----29.23- 37.9 36.9----
2024-02-21 11:24 am S 15.0 32.1----29.23- 37.9 36.9----
2024-02-21 11:18 am S 15.9 34.0----29.23- 38.1 36.9----
2024-02-21 11:12 am S 20.0 27.0----29.23- 38.3 36.9----
2024-02-21 11:06 am S 17.1 29.9----29.23- 38.5 36.9----
2024-02-21 11:00 am S 19.0 36.9----29.22+0.04 38.5 36.9----
2024-02-21 10:54 am S 19.0 28.9----29.21- 38.3 36.9----
2024-02-21 10:48 am S 17.1 26.0----29.22- 38.1 36.9----
2024-02-21 10:42 am S 20.0 28.0----29.21- 38.3 36.9----
2024-02-21 10:36 am S 18.1 25.1----29.21- 38.3 36.9----
2024-02-21 10:30 am S 19.0 26.0----29.20- 38.3 36.9----
2024-02-21 10:24 am S 21.0 27.0----29.21- 38.3 36.9----
2024-02-21 10:18 am S 20.0 28.0----29.20- 38.5 36.9----
2024-02-21 10:12 amSSW 17.1 26.0----29.20- 39.0 36.9----
2024-02-21 10:06 am S 17.1 28.9----29.20- 39.0 36.9----
2024-02-21 10:00 am S 18.1 32.1----29.19+0.02 39.4 36.9----
2024-02-21 09:54 am S 22.0 35.9----29.20- 39.6 36.9----
2024-02-21 09:48 am S 20.0 33.0----29.20- 39.4 36.9----
2024-02-21 09:42 am S 25.1 35.0----29.20- 39.6 36.9----
2024-02-21 09:36 am S 22.0 32.1----29.20- 39.6 36.9----
2024-02-21 09:30 am S 24.1 28.9----29.20- 39.2 36.9----
2024-02-21 09:24 am S 21.0 35.9----29.20- 38.8 36.9----
2024-02-21 09:18 am S 22.9 35.0----29.21- 39.0 36.9----
2024-02-21 09:12 am S 28.0 38.1----29.20- 39.4 36.9----
2024-02-21 09:06 am S 28.9 35.0----29.19- 39.9 36.9----
2024-02-21 09:00 am S 24.1 34.0----29.18-0.03 39.7 36.9----
2024-02-21 08:54 am S 26.0 31.1----29.18- 39.7 36.9----
2024-02-21 08:48 am S 22.9 28.0----29.18- 39.6 36.9----
2024-02-21 08:42 am S 22.9 28.0----29.18- 39.2 36.9----
2024-02-21 08:36 am S 19.0 28.9----29.18- 38.5 36.9----
2024-02-21 08:30 am S 22.0 28.9----29.19- 38.7 36.9----
2024-02-21 08:24 am S 22.9 35.9----29.20- 38.8 36.9----
2024-02-21 08:18 am S 26.0 33.0----29.20- 39.2 36.9----
2024-02-21 08:12 am S 25.1 33.0----29.20- 39.7 36.9----
2024-02-21 08:06 am S 24.1 33.0----29.19- 39.6 36.9----
2024-02-21 08:00 am S 22.9 33.0----29.19-0.04 39.7 36.9----
2024-02-21 07:54 am S 25.1 34.0----29.18- 39.9 36.9----
2024-02-21 07:48 am S 26.0 34.0----29.19- 40.1 36.9----
2024-02-21 07:42 am S 27.0 34.0----29.19- 39.9 36.9----
2024-02-21 07:36 am S 24.1 29.9----29.19- 39.9 36.9----
2024-02-21 07:30 am S 24.1 31.1----29.19- 40.1 36.9----
2024-02-21 07:24 am S 24.1 35.9----29.19- 40.1 36.9----
2024-02-21 07:18 am S 22.0 31.1----29.19- 40.1 36.9----
2024-02-21 07:12 am S 25.1 35.9----29.19- 40.1 36.9----
2024-02-21 07:06 am S 24.1 36.9----29.18- 40.1 36.9----
2024-02-21 07:00 am S 22.0 35.0----29.17-0.12 39.7 36.9----
2024-02-21 06:54 am S 24.1 28.9----29.18- 39.6 36.9----
2024-02-21 06:48 am S 22.9 29.9----29.18- 39.6 36.9----
2024-02-21 06:42 am S 25.1 33.0----29.19- 39.6 36.7----
2024-02-21 06:36 am S 22.9 29.9----29.19- 39.6 36.7----
2024-02-21 06:30 am S 24.1 29.9----29.20- 39.6 36.7----
2024-02-21 06:24 am S 22.0 28.9----29.20- 39.2 36.7----
2024-02-21 06:18 am S 20.0 31.1----29.20- 39.0 36.7----
2024-02-21 06:12 am S 21.0 28.9----29.21- 39.0 36.7----
2024-02-21 06:06 am S 22.9 29.9----29.21- 39.0 36.7----
2024-02-21 06:00 am S 22.9 28.9----29.21-0.13- 36.7----
2024-02-21 05:54 am S 24.1 29.9----29.21-- 36.7----
2024-02-21 05:48 am S 25.1 32.1----29.21- 38.5 36.7----
2024-02-21 05:42 am S 24.1 35.0----29.22- 38.5 36.7----
2024-02-21 05:36 am S 25.1 32.1----29.22- 38.3 36.7----
2024-02-21 05:30 am S 27.0 32.1----29.21- 38.5 36.7----
2024-02-21 05:24 am S 25.1 35.0----29.22- 38.5 36.7----
2024-02-21 05:18 am S 26.0 35.9----29.22- 38.1 36.7----
2024-02-21 05:12 am S 24.1 35.0----29.23- 37.9 36.7----
2024-02-21 05:06 am S 26.0 34.0----29.23- 37.8 36.7----
2024-02-21 05:00 am S 24.1 32.1----29.23-0.14 37.6 36.7----
2024-02-21 04:54 am S 26.0 36.9----29.23- 37.4 36.7----
2024-02-21 04:48 am S 26.0 33.0----29.24- 37.4 36.7----
2024-02-21 04:42 am S 26.0 36.9----29.24- 37.0 36.7----
2024-02-21 04:36 am S 21.0 28.9----29.25- 37.0 36.7----
2024-02-21 04:30 am S 21.0 33.0----29.26- 36.5 36.7----
2024-02-21 04:24 am S 25.1 35.0----29.26- 36.1 36.7----
2024-02-21 04:18 am S 28.0 35.0----29.27- 36.0 36.7----
2024-02-21 04:12 am S 22.0 31.1----29.28- 36.1 36.7----
2024-02-21 04:06 am S 22.0 28.0----29.29- 36.9 36.7----
2024-02-21 04:00 am S 18.1 25.1----29.29-0.09 37.0 36.7----
2024-02-21 03:54 am S 17.1 26.0----29.30- 36.9 36.7----
2024-02-21 03:48 am S 18.1 29.9----29.30- 36.7 36.7----
2024-02-21 03:42 am S 21.0 27.0----29.31- 36.7 36.7----
2024-02-21 03:36 am S 22.0 28.0----29.31- 36.7 36.7----
2024-02-21 03:30 am S 22.9 27.0----29.32- 36.9 36.7----
2024-02-21 03:24 am S 20.0 27.0----29.33- 36.9 36.7----
2024-02-21 03:18 am S 21.0 27.0----29.34- 36.9 36.7----
2024-02-21 03:12 am S 20.0 28.0----29.34- 37.0 36.7----
2024-02-21 03:06 am S 17.1 28.9----29.34- 36.9 36.7----
2024-02-21 03:00 am S 20.0 26.0----29.34-0.06 37.0 36.7----
2024-02-21 02:54 am S 17.1 29.9----29.34- 36.9 36.9----
2024-02-21 02:48 am S 20.0 28.0----29.35- 36.9 36.9----
2024-02-21 02:42 am S 20.0 26.0----29.35- 37.4 36.9----
2024-02-21 02:36 am S 18.1 31.1----29.36- 37.2 36.7----
2024-02-21 02:30 amSSW 21.0 29.9----29.36- 37.0 36.7----
2024-02-21 02:24 am S 21.0 28.0----29.36- 36.9 36.7----
2024-02-21 02:18 am S 22.0 29.9----29.37- 36.7 36.9----
2024-02-21 02:12 am S 19.0 25.1----29.38- 36.5 36.7----
2024-02-21 02:06 amSSW 15.9 22.9----29.38- 36.1 36.9----
2024-02-21 02:00 am S 20.0 22.9----29.37-0.06 36.5 36.9----
2024-02-21 01:54 amSSW 15.0 25.1----29.37- 36.5 36.9----
2024-02-21 01:48 am S 15.9 29.9----29.38- 36.7 36.9----
2024-02-21 01:42 amSSW 19.0 25.1----29.38- 36.7 36.9----
2024-02-21 01:36 am S 19.0 25.1----29.38- 37.0 36.9----
2024-02-21 01:30 am S 20.0 27.0----29.37- 37.0 36.9----
2024-02-21 01:24 am S 21.0 26.0----29.38- 37.0 36.7----
2024-02-21 01:18 am S 17.1 22.9----29.39- 37.0 36.7----
2024-02-21 01:12 am S 21.0 26.0----29.39- 37.2 36.7----
2024-02-21 01:06 am S 20.0 27.0----29.39- 37.2 36.7----
2024-02-21 01:00 amSSW 18.1 27.0----29.38-0.07 37.0 36.7----
2024-02-21 12:54 amSSW 18.1 22.9----29.38- 37.0 36.7----
2024-02-21 12:48 amSSW 20.0 25.1----29.38- 37.0 36.7----
2024-02-21 12:42 am S 18.1 24.1----29.38- 36.9 36.7----
2024-02-21 12:36 am S 17.1 22.9----29.39- 36.7 36.5----
2024-02-21 12:30 amSSW 20.0 28.0----29.39- 36.5 36.5----
2024-02-21 12:24 am S 18.1 26.0----29.39- 37.8 36.9----
2024-02-21 12:18 am S 19.0 25.1----29.39- 37.8 36.9----
2024-02-21 12:12 am S 15.9 22.0----29.39- 37.6 36.9----
2024-02-21 12:06 am S 15.9 21.0----29.40- 37.6 36.9----
2024-02-21 12:00 am S 18.1 22.0----29.40-0.06 37.6 36.9----
2024-02-20 11:54 pm S 15.0 21.0----29.40- 37.4 36.9----
2024-02-20 11:48 pm S 15.0 19.0----29.40- 37.4 36.9----
2024-02-20 11:42 pm S 15.0 21.0----29.40- 37.4 37.0----
2024-02-20 11:36 pm S 13.0 19.0----29.40- 37.4 37.0----
2024-02-20 11:30 pm S 14.0 19.0----29.41- 37.4 37.0----
2024-02-20 11:24 pm S 13.0 15.9----29.41- 37.2 37.0----
2024-02-20 11:18 pm S 11.1 15.0----29.42- 37.2 36.9----
2024-02-20 11:12 pm S 11.1 14.0----29.42- 37.2 36.9----
2024-02-20 11:06 pm S 12.0 15.0----29.43- 37.2 36.9----
2024-02-20 11:00 pm S 9.9 13.0----29.43-0.01 37.0 36.9----
2024-02-20 10:54 pm S 11.1 15.0----29.44- 36.9 36.9----
2024-02-20 10:48 pm S 11.1 14.0----29.44- 36.9 36.9----
2024-02-20 10:42 pm S 8.9 14.0----29.44- 36.9 37.0----
2024-02-20 10:36 pm S 8.9 13.0----29.44- 36.9 36.9----
2024-02-20 10:30 pm S 9.9 14.0----29.44- 37.0 36.9----
2024-02-20 10:24 pm S 8.9 11.1----29.44- 36.9 36.9----
2024-02-20 10:18 pm S 5.1 8.0----29.45- 36.5 36.9----
2024-02-20 10:12 pm S 6.0 8.0----29.45- 36.7 37.0----
2024-02-20 10:06 pm S 7.0 9.9----29.45- 36.7 37.0----
2024-02-20 10:00 pm S 6.0 9.9----29.45+0.02- 36.9----
2024-02-20 09:54 pm S 8.9 12.0----29.45-- 36.9----
2024-02-20 09:48 pm S 8.9 13.0----29.45- 36.9 36.9----
2024-02-20 09:42 pm S 9.9 13.0----29.45- 36.9 36.9----
2024-02-20 09:36 pm S 9.9 11.1----29.45- 36.7 37.0----
2024-02-20 09:30 pm S 8.0 12.0----29.45- 36.5 36.9----
2024-02-20 09:24 pm S 8.9 12.0----29.46- 36.7 36.9----
2024-02-20 09:18 pm S 8.0 12.0----29.46- 36.3 36.9----
2024-02-20 09:12 pm S 8.0 9.9----29.46- 36.3 36.9----
2024-02-20 09:06 pmSSW 5.1 8.9----29.45- 35.6 36.9----
2024-02-20 09:00 pm S 7.0 11.1----29.45+0.04 36.3 36.9----
2024-02-20 08:54 pm S 8.0 12.0----29.45- 36.1 36.9----
2024-02-20 08:48 pmSSW 6.0 9.9----29.45- 35.2 36.9----
2024-02-20 08:42 pm S 5.1 6.0----29.45- 35.6 36.9----
2024-02-20 08:36 pm SW 4.1 5.1----29.45- 34.9 37.0----
2024-02-20 08:30 pmWSW 4.1 5.1----29.45- 34.3 37.0----
2024-02-20 08:24 pmWSW 2.9 6.0----29.45- 34.3 37.0----
2024-02-20 08:18 pmSSW 2.9 4.1----29.45- 34.5 37.2----
2024-02-20 08:12 pm SW 2.9 5.1----29.45- 34.7 37.0----
2024-02-20 08:06 pm SW 4.1 5.1----29.45- 34.7 37.2----
2024-02-20 08:00 pmSSW 2.9 5.1----29.44+0.04 35.1 37.0----
2024-02-20 07:54 pm S 2.9 5.1----29.45- 35.4 37.0----
2024-02-20 07:48 pm S 2.9 5.1----29.44- 35.2 37.2----
2024-02-20 07:42 pm S 1.9 5.1----29.45- 35.2 37.2----
2024-02-20 07:36 pmSSE 4.1 6.0----29.44- 35.4 37.0----
2024-02-20 07:30 pmSSE 4.1 5.1----29.44- 35.6 37.0----
2024-02-20 07:24 pmSSE 5.1 6.0----29.44- 35.8 37.0----
2024-02-20 07:18 pmSSE 7.0 8.9----29.44- 35.8 37.2----
2024-02-20 07:12 pm S 4.1 6.0----29.44- 35.8 37.2----
2024-02-20 07:06 pmSSE 5.1 7.0----29.44- 36.0 37.2----
2024-02-20 07:00 pmSSE 4.1 6.0----29.43+0.05 36.0 37.2----
2024-02-20 06:54 pm S 5.1 6.0----29.43- 36.0 37.2----
2024-02-20 06:48 pm S 5.1 8.0----29.43- 36.0 37.2----
2024-02-20 06:42 pm S 6.0 8.0----29.43- 36.0 37.2----
2024-02-20 06:36 pm S 6.0 8.0----29.43- 36.0 37.2----
2024-02-20 06:30 pmSSE 6.0 8.0----29.43- 36.1 37.2----
2024-02-20 06:24 pmSSE 5.1 8.0----29.43- 36.1 37.2----
2024-02-20 06:18 pmSSE 4.1 7.0----29.42- 36.1 37.2----
2024-02-20 06:12 pmSSE 4.1 7.0----29.42- 36.1 37.2----
2024-02-20 06:06 pmSSE 6.0 8.0----29.42- 36.1 37.2----
2024-02-20 06:00 pm S 5.1 6.0----29.41+0.04 36.3 37.2----
2024-02-20 05:54 pm S 5.1 8.0----29.41- 36.3 37.2----
2024-02-20 05:48 pm SW 4.1 5.1----29.41- 36.3 37.2----
2024-02-20 05:42 pm S 4.1 5.1----29.41- 36.3 37.2----
2024-02-20 05:36 pmSSW 2.9 4.1----29.40- 36.1 37.2----
2024-02-20 05:30 pm S 2.9 4.1----29.40- 36.1 37.2----
2024-02-20 05:24 pm SW 1.9 2.9----29.40- 36.1 37.2----
2024-02-20 05:18 pm S 2.9 4.1----29.40- 36.0 37.2----
2024-02-20 05:12 pm S 2.9 2.9----29.40- 36.0 37.2----
2024-02-20 05:06 pm S 2.9 5.1----29.40- 36.1 37.2----
2024-02-20 05:00 pm S 2.9 4.1----29.40+0.04 36.3 37.2----
2024-02-20 04:54 pm S 2.9 4.1----29.40- 36.3 37.2----
2024-02-20 04:48 pm S 1.9 4.1----29.40- 36.5 37.2----
2024-02-20 04:42 pmSSW 2.9 4.1----29.40- 36.5 37.2----
2024-02-20 04:36 pm S 2.9 4.1----29.40- 36.5 37.2----
2024-02-20 04:30 pmSSE 2.9 4.1----29.40- 36.5 37.2----
2024-02-20 04:24 pm S 1.9 2.9----29.39- 36.7 37.2----
2024-02-20 04:18 pm S 1.9 5.1----29.39- 36.5 37.2----
2024-02-20 04:12 pmSSW 2.9 2.9----29.39- 36.3 37.2----
2024-02-20 04:06 pmSSW 2.9 4.1----29.39- 36.5 37.2----
2024-02-20 04:00 pm S 2.9 4.1----29.38+0.05 36.5 37.2----
2024-02-20 03:54 pm S 2.9 5.1----29.38- 36.1 37.2----
2024-02-20 03:48 pm S 2.9 4.1----29.38- 36.1 37.2----
2024-02-20 03:42 pm S 2.9 2.9----29.38- 36.0 37.2----
2024-02-20 03:36 pm S 2.9 4.1----29.38- 36.1 37.2----
2024-02-20 03:30 pm S 2.9 4.1----29.38- 36.3 37.2----
2024-02-20 03:24 pm S 1.9 4.1----29.38- 36.3 37.2----
2024-02-20 03:18 pm S 2.9 4.1----29.37- 36.3 37.2----
2024-02-20 03:12 pm S 4.1 6.0----29.38- 35.6 37.2----
2024-02-20 03:06 pm S 5.1 6.0----29.38- 35.4 37.2----
2024-02-20 03:00 pmSSW 2.9 4.1----29.37+0.07 36.0 37.2----
2024-02-20 02:54 pm S 2.9 4.1----29.37- 35.8 37.2----
2024-02-20 02:48 pm S 2.9 4.1----29.37- 36.1 37.2----
2024-02-20 02:42 pm S 1.0 2.9----29.37- 37.2 37.2----
2024-02-20 02:36 pm SW 1.9 4.1----29.36- 36.7 37.2----
2024-02-20 02:30 pm SE 1.0 2.9----29.36- 36.5 37.2----
2024-02-20 02:24 pm S 1.9 4.1----29.36- 36.1 37.2----
2024-02-20 02:18 pm S 4.1 4.1----29.36- 35.8 37.2----
2024-02-20 02:12 pm S 2.9 5.1----29.36- 35.8 37.2----
2024-02-20 02:06 pm S 4.1 4.1----29.36- 35.6 37.2----
2024-02-20 02:00 pm S 4.1 4.1----29.36+0.07 35.6 37.2----
2024-02-20 01:54 pm S 1.9 2.9----29.35- 36.1 37.2----
2024-02-20 01:48 pmSSW 1.9 2.9----29.35- 36.0 37.2----
2024-02-20 01:42 pm S 1.9 2.9----29.35- 36.0 37.2----
2024-02-20 01:36 pm S 1.9 2.9----29.35- 35.6 37.2----
2024-02-20 01:30 pm S 2.9 4.1----29.34- 35.4 37.2----
2024-02-20 01:24 pm S 2.9 5.1----29.34- 35.4 37.2----
2024-02-20 01:18 pm S 5.1 6.0----29.34- 35.1 37.2----
2024-02-20 01:12 pm S 5.1 5.1----29.34- 35.1 37.0----
2024-02-20 01:06 pmSSW 1.9 2.9----29.33- 36.0 37.0----
2024-02-20 01:00 pm- 0.0 0.0----29.33+0.08 38.3 37.0----
2024-02-20 12:54 pm- 0.0 1.9----29.33- 37.0 37.0----